• In Romania
  • List of Countries
  • For 7 days
  • Water Temperature
  • Satellite Maps
  • Weather Map
  • Weather Widgets
  • user-avatar
    Login

    Hourly Weather Miskolc

    Today, 18 February, Sunday

    Time Temperature Precipitation Wind Pressure Humidity
    00:00 -1°C° 0.4 mm 2 mps 752 mmHg 88%
    01:00 -1°C° 0 mm 2 mps 752 mmHg 88%
    02:00 -1°C° 0.4 mm 2 mps 752 mmHg 89%
    03:00 -1°C° 0.4 mm 2 mps 752 mmHg 90%
    04:00 -1°C° 0.4 mm 3 mps 751 mmHg 90%
    05:00 -1°C° 0.3 mm 3 mps 752 mmHg 90%
    06:00 -1°C° 0.3 mm 3 mps 752 mmHg 89%
    07:00 -1°C° 0 mm 3 mps 752 mmHg 88%
    08:00 0°C° 0.1 mm 3 mps 752 mmHg 84%
    09:00 0°C° 0.1 mm 3 mps 752 mmHg 80%
    10:00 0°C° 0.1 mm 4 mps 753 mmHg 75%
    11:00 +1°C° 0 mm 4 mps 753 mmHg 72%
    12:00 +3°C° 0 mm 4 mps 753 mmHg 70%
    13:00 +2°C° 0 mm 5 mps 753 mmHg 67%
    14:00 +3°C° 0 mm 4 mps 753 mmHg 68%
    15:00 +1°C° 0 mm 4 mps 753 mmHg 69%
    16:00 +2°C° 0 mm 3 mps 753 mmHg 70%
    17:00 +1°C° 0 mm 3 mps 754 mmHg 72%
    18:00 0°C° 0 mm 3 mps 754 mmHg 75%
    19:00 -1°C° 0 mm 3 mps 754 mmHg 78%
    20:00 -2°C° 0 mm 3 mps 755 mmHg 78%
    21:00 -2°C° 0 mm 3 mps 755 mmHg 79%
    22:00 -2°C° 0 mm 3 mps 755 mmHg 79%
    23:00 -4°C° 0 mm 3 mps 755 mmHg 79%

    Tomorrow, 19 February, Monday

    Time Temperature Precipitation Wind Pressure Humidity
    00:00 -4°C° 0 mm 3 mps 755 mmHg 79%
    01:00 -4°C° 0 mm 3 mps 755 mmHg 79%
    02:00 -4°C° 0 mm 3 mps 755 mmHg 78%
    03:00 -4°C° 0 mm 3 mps 755 mmHg 78%
    04:00 -4°C° 0 mm 3 mps 755 mmHg 77%
    05:00 -4°C° 0 mm 3 mps 754 mmHg 77%
    06:00 -4°C° 0 mm 3 mps 754 mmHg 76%
    07:00 -5°C° 0 mm 3 mps 754 mmHg 75%
    08:00 -2°C° 0 mm 3 mps 754 mmHg 70%
    09:00 -1°C° 0 mm 3 mps 754 mmHg 64%
    10:00 0°C° 0 mm 3 mps 753 mmHg 58%
    11:00 +1°C° 0 mm 3 mps 753 mmHg 56%
    12:00 +2°C° 0 mm 3 mps 753 mmHg 53%
    13:00 +3°C° 0 mm 3 mps 752 mmHg 50%
    14:00 +2°C° 0 mm 3 mps 752 mmHg 53%
    15:00 +3°C° 0 mm 2 mps 751 mmHg 57%
    16:00 +3°C° 0 mm 2 mps 751 mmHg 60%
    17:00 +2°C° 0 mm 2 mps 751 mmHg 63%
    18:00 +1°C° 0 mm 2 mps 751 mmHg 67%
    19:00 -2°C° 0 mm 2 mps 751 mmHg 70%
    20:00 -2°C° 0 mm 2 mps 751 mmHg 71%
    21:00 -2°C° 0 mm 2 mps 751 mmHg 71%
    22:00 -2°C° 0 mm 2 mps 751 mmHg 72%
    23:00 -2°C° 0 mm 2 mps 750 mmHg 72%

    Day after tomorrow, 20 February, Tuesday

    Time Temperature Precipitation Wind Pressure Humidity
    00:00 -2°C° 0 mm 3 mps 750 mmHg 71%
    01:00 -2°C° 0 mm 3 mps 750 mmHg 71%
    02:00 -2°C° 0 mm 3 mps 750 mmHg 71%
    03:00 -2°C° 0 mm 3 mps 749 mmHg 71%
    04:00 -2°C° 0 mm 3 mps 749 mmHg 71%
    05:00 -2°C° 0 mm 3 mps 749 mmHg 70%
    06:00 -2°C° 0 mm 3 mps 749 mmHg 70%
    07:00 -1°C° 0 mm 3 mps 749 mmHg 70%
    08:00 0°C° 0 mm 3 mps 748 mmHg 67%
    09:00 +1°C° 0 mm 3 mps 748 mmHg 63%
    10:00 +2°C° 0 mm 3 mps 748 mmHg 60%
    11:00 +1°C° 0 mm 4 mps 748 mmHg 60%
    12:00 +3°C° 0 mm 4 mps 748 mmHg 59%
    13:00 +4°C° 0 mm 4 mps 747 mmHg 58%
    14:00 +4°C° 0 mm 3 mps 747 mmHg 61%
    15:00 +3°C° 0 mm 3 mps 747 mmHg 64%
    16:00 +3°C° 0 mm 3 mps 746 mmHg 67%
    17:00 +2°C° 0.1 mm 3 mps 746 mmHg 69%
    18:00 +2°C° 0.1 mm 3 mps 747 mmHg 70%
    19:00 +1°C° 0.1 mm 3 mps 747 mmHg 71%
    20:00 +1°C° 0.1 mm 3 mps 747 mmHg 72%
    21:00 +1°C° 0.1 mm 3 mps 747 mmHg 72%
    22:00 0°C° 0.1 mm 3 mps 747 mmHg 73%
    23:00 0°C° 0.1 mm 3 mps 747 mmHg 75%

    21 February, Wednesday

    Time Temperature Precipitation Wind Pressure Humidity
    00:00 0°C° 0.1 mm 3 mps 747 mmHg 76%
    01:00 0°C° 0.1 mm 3 mps 747 mmHg 77%
    02:00 0°C° 0.1 mm 3 mps 747 mmHg 78%
    03:00 0°C° 0.1 mm 3 mps 747 mmHg 79%
    04:00 0°C° 0.1 mm 3 mps 747 mmHg 80%
    05:00 -1°C° 0.1 mm 3 mps 747 mmHg 80%
    06:00 -1°C° 0.1 mm 3 mps 747 mmHg 80%
    07:00 -1°C° 0.1 mm 3 mps 747 mmHg 80%
    08:00 0°C° 0.1 mm 3 mps 747 mmHg 78%
    09:00 +1°C° 0.1 mm 3 mps 747 mmHg 75%
    10:00 +2°C° 0.1 mm 3 mps 748 mmHg 72%
    11:00 +3°C° 0.1 mm 3 mps 747 mmHg 71%
    12:00 +3°C° 0.1 mm 3 mps 747 mmHg 69%
    13:00 +4°C° 0.1 mm 3 mps 747 mmHg 68%
    14:00 +4°C° 0.1 mm 3 mps 747 mmHg 70%
    15:00 +3°C° 0.1 mm 3 mps 747 mmHg 71%
    16:00 +3°C° 0.1 mm 3 mps 746 mmHg 73%
    17:00 +1°C° 0 mm 4 mps 747 mmHg 75%
    18:00 0°C° 0 mm 4 mps 747 mmHg 77%
    19:00 -1°C° 0 mm 4 mps 747 mmHg 79%
    20:00 -1°C° 0 mm 4 mps 747 mmHg 78%
    21:00 -2°C° 0 mm 4 mps 747 mmHg 78%
    22:00 -2°C° 0 mm 5 mps 747 mmHg 78%
    23:00 -2°C° 0 mm 5 mps 747 mmHg 78%

    22 February, Thursday

    Time Temperature Precipitation Wind Pressure Humidity
    00:00 -2°C° 0 mm 5 mps 747 mmHg 78%
    01:00 -2°C° 0 mm 5 mps 747 mmHg 79%
    02:00 -2°C° 0.1 mm 5 mps 746 mmHg 79%
    03:00 -2°C° 0.1 mm 5 mps 746 mmHg 79%
    04:00 -2°C° 0.1 mm 5 mps 746 mmHg 79%
    05:00 -1°C° 0.1 mm 5 mps 746 mmHg 79%
    06:00 -1°C° 0.1 mm 5 mps 746 mmHg 79%
    07:00 -1°C° 0.1 mm 5 mps 746 mmHg 79%
    08:00 -1°C° 0.1 mm 5 mps 746 mmHg 77%
    09:00 0°C° 0.1 mm 5 mps 746 mmHg 76%
    10:00 +1°C° 0.1 mm 6 mps 745 mmHg 74%
    11:00 +1°C° 0.3 mm 5 mps 745 mmHg 74%
    12:00 +1°C° 0.3 mm 5 mps 745 mmHg 75%
    13:00 +1°C° 0.3 mm 5 mps 745 mmHg 75%
    14:00 +1°C° 0.5 mm 5 mps 745 mmHg 78%
    15:00 +1°C° 0.5 mm 4 mps 745 mmHg 81%
    16:00 0°C° 0.5 mm 4 mps 745 mmHg 84%
    17:00 0°C° 0.1 mm 4 mps 745 mmHg 84%
    18:00 -1°C° 0.1 mm 4 mps 745 mmHg 85%
    19:00 -1°C° 0.1 mm 4 mps 745 mmHg 85%
    20:00 -1°C° 0 mm 4 mps 745 mmHg 85%
    21:00 0°C° 0 mm 3 mps 745 mmHg 85%
    22:00 -1°C° 0 mm 3 mps 745 mmHg 86%
    23:00 -1°C° 0.2 mm 3 mps 745 mmHg 86%

    23 February, Friday

    Time Temperature Precipitation Wind Pressure Humidity
    00:00 -1°C° 0.2 mm 3 mps 745 mmHg 86%
    01:00 -1°C° 0.2 mm 3 mps 745 mmHg 87%
    02:00 -1°C° 0.6 mm 3 mps 745 mmHg 88%
    03:00 -1°C° 0.6 mm 3 mps 744 mmHg 90%
    04:00 -1°C° 0.6 mm 3 mps 744 mmHg 91%
    05:00 -2°C° 0.4 mm 4 mps 744 mmHg 90%
    06:00 -2°C° 0.4 mm 4 mps 744 mmHg 90%
    07:00 -2°C° 0.4 mm 4 mps 744 mmHg 89%
    08:00 -2°C° 0.5 mm 4 mps 744 mmHg 88%
    09:00 -2°C° 0.5 mm 4 mps 744 mmHg 88%
    10:00 -2°C° 0.5 mm 4 mps 744 mmHg 87%
    11:00 -1°C° 0.4 mm 4 mps 744 mmHg 86%
    12:00 -1°C° 0.4 mm 5 mps 743 mmHg 85%
    13:00 -1°C° 0.4 mm 5 mps 743 mmHg 84%
    14:00 -1°C° 0.4 mm 5 mps 743 mmHg 83%
    15:00 -1°C° 0.4 mm 5 mps 743 mmHg 83%
    16:00 -1°C° 0.4 mm 5 mps 743 mmHg 82%
    17:00 -2°C° 0.3 mm 5 mps 743 mmHg 82%
    18:00 -3°C° 0.3 mm 6 mps 743 mmHg 82%
    19:00 -4°C° 0.3 mm 6 mps 742 mmHg 82%
    20:00 -4°C° 0.2 mm 6 mps 742 mmHg 81%
    21:00 -6°C° 0.2 mm 7 mps 742 mmHg 80%
    22:00 -6°C° 0.2 mm 7 mps 742 mmHg 79%
    23:00 -7°C° 0.1 mm 7 mps 742 mmHg 78%
    Show more